[[{"header":{"parameterUnit":"m.s-1","parameterCategory":1,"la1":30.2991,"la2":30.254,"lo1":-89.0895,"lo2":-89.0444,"dy":0.0017,"dx":0.0017,"nx":28,"ny":28,"refTime":"2024-07-31T09:00:00:Z","depth":0,"parameterNumber":2,"parameterNumberName":"U-component_of_WINDS"},"data":[0,0,0,0,0,0,0,0,0,0,0,0,0,0,0,0,0,0,0,0,0,0,0,0,0,0,0,0,0,0,0,0,0,0,0,0,0,0,0,0,0,0,0,0,0,0,0,0,0,0,0,0,0,0,0,0,0,0,0.9222,0.9223,0,0.9318,0.9319,0.932,0.935,0.935,0.9349,0.9349,0.9446,0.9449,0.9452,0,0,0,0,0,0,0,0,0,0,0,0,0,0.9064,0.9067,0.9222,0.9223,0.9225,0.9318,0.9319,0.932,0.935,0.935,0.9349,0.9349,0.9445,0.9449,0.9452,0,0,0,0,0,0,0,0,0,0,0,0,0,0.9143,0.9068,0.9222,0.9251,0.9254,0.9317,0.9319,0.9321,0.935,0.935,0.9349,0.9349,0.9444,0.9448,0.9453,0.9494,0,0,0.9466,0.9468,0,0,0,0,0,0,0,0,0.9139,0.9149,0.9245,0.9249,0.9253,0.9322,0.9299,0.9379,0.9351,0.9314,0.9349,0.9348,0.9405,0.9413,0.9432,0.9498,0.9502,0.9467,0.947,0.9471,0.9473,0,0,0,0,0,0,0,0.9133,0.9145,0.926,0.9247,0.9251,0.9258,0.9269,0.9314,0.9362,0.9317,0.932,0.9331,0.9407,0.9428,0.9435,0.9504,0.9467,0.9471,0.9473,0.9475,0.9607,0.9608,0,0,0,0,0,0,0.9123,0.914,0.9257,0.9263,0.9193,0.9262,0.9274,0.93,0.9362,0.937,0.9331,0.9332,0.942,0.9429,0.9438,0.9489,0.9471,0.9476,0.9478,0.9606,0.9607,0.9608,0,0,0,0,0,0,0.912,0.9133,0.9253,0.9202,0.9218,0.9265,0.9295,0.9302,0.9323,0.9372,0.9381,0.9343,0.942,0.9432,0.9479,0.9493,0.9478,0.9482,0.9605,0.9607,0.9608,0.9593,0,0,0,0,0,0,0.9115,0.9132,0.9148,0.9203,0.9221,0.9293,0.9296,0.9305,0.9331,0.9333,0.9386,0.9394,0.9421,0.9473,0.9484,0.9499,0.9485,0.9604,0.9606,0.9607,0.9592,0.9593,0.9594,0,0,0,0,0,0.9109,0.914,0.9149,0.9163,0.9243,0.9294,0.9304,0.9334,0.9332,0.9348,0.938,0.9393,0.949,0.9477,0.949,0.9507,0.9604,0.9605,0.9607,0.9592,0.9593,0.9594,0,0,0,0,0,0,0.9086,0.9148,0.9158,0.9208,0.9246,0.9299,0.9321,0.9335,0.9374,0.9374,0.9409,0.9421,0.9465,0.9491,0.9476,0.9549,0.9547,0.9552,0.9531,0.9533,0.9533,0.9526,0.9489,0,0,0,0,0,0.9087,0.9124,0.9176,0.9215,0.9233,0.9274,0.9297,0.9317,0.9357,0.9373,0.9408,0.9446,0.9485,0.951,0.9549,0.9596,0.9607,0.9614,0.9615,0.9615,0.9619,0.9644,0.9647,0.9614,0.9614,0.9614,0,0,0.9089,0.9127,0.9149,0.9211,0.9243,0.928,0.9287,0.9326,0.9354,0.9379,0.9426,0.9453,0.9498,0.9545,0.9567,0.9567,0.963,0.9618,0.9618,0.9621,0.9646,0.965,0.9652,0.9615,0.9615,0.9615,0,0,0.9111,0.9144,0.918,0.9211,0.9259,0.9285,0.9294,0.9345,0.9364,0.9412,0.9431,0.9464,0.9531,0.9562,0.9586,0.9619,0.9632,0.9631,0.9636,0.966,0.9663,0.9666,0.9677,0.968,0.9634,0.9634,0.9634,0,0.9107,0.9165,0.9196,0.9234,0.9261,0.9285,0.9321,0.935,0.9407,0.9425,0.9424,0.9508,0.954,0.9594,0.9602,0.9621,0.9631,0.9625,0.966,0.9663,0.9666,0.9677,0.9681,0.9634,0.9634,0.9634,0.9634,0,0.9157,0.9196,0.9219,0.9274,0.9303,0.934,0.9376,0.9402,0.9419,0.9445,0.9493,0.9532,0.9579,0.9593,0.961,0.9649,0.9648,0.9653,0.9652,0.9668,0.9679,0.9683,0.9633,0.9633,0.9633,0.9633,0,0,0.9168,0.9239,0.9247,0.9272,0.9326,0.9357,0.9394,0.944,0.946,0.9499,0.9531,0.9586,0.9591,0.9619,0.964,0.9661,0.9684,0.9664,0.9666,0.9666,0.9728,0.9724,0.9728,0.9693,0.9693,0.9694,0.9724,0,0.9196,0.9265,0.9294,0.9348,0.9385,0.9408,0.944,0.9476,0.9502,0.9536,0.9564,0.9602,0.9607,0.9623,0.9646,0.9676,0.9697,0.9674,0.9722,0.9723,0.9709,0.9734,0.9729,0.9756,0.9729,0.973,0.973,0,0.9239,0.9278,0.9336,0.9385,0.9401,0.943,0.9474,0.9506,0.9547,0.9564,0.9594,0.9614,0.9653,0.9649,0.9703,0.9687,0.9708,0.9726,0.9727,0.9733,0.9727,0.9739,0.9765,0.9769,0.9737,0.9737,0.9736,0,0.924,0.9307,0.935,0.9371,0.9429,0.9449,0.9474,0.9514,0.9539,0.9577,0.9594,0.9636,0.9659,0.9691,0.9721,0.9715,0.9772,0.977,0.9786,0.9785,0.9797,0.9796,0.9826,0.9811,0.9811,0.9811,0.9811,0,0.9269,0.9303,0.9352,0.9378,0.9417,0.945,0.9487,0.9514,0.9549,0.9581,0.9604,0.9633,0.9671,0.9704,0.9728,0.9768,0.9779,0.9793,0.9799,0.9791,0.9789,0.9805,0.9804,0.9812,0.9812,0.9811,0.9811,0,0.9277,0.931,0.9359,0.941,0.9424,0.945,0.9493,0.9519,0.9546,0.9585,0.9596,0.9638,0.9678,0.9711,0.9764,0.978,0.9822,0.9829,0.9809,0.9812,0.9825,0.9823,0.9867,0.9874,0.9854,0.9854,0.9854,0,0.9293,0.932,0.9373,0.9396,0.9421,0.9458,0.9484,0.9517,0.9543,0.9591,0.9611,0.9653,0.9689,0.9752,0.9787,0.9827,0.9835,0.9847,0.9841,0.9832,0.9835,0.9832,0.9835,0.9848,0.9848,0.9848,0.9848,0,0.9317,0.9332,0.9369,0.9411,0.9442,0.9477,0.9512,0.9529,0.9569,0.9596,0.9638,0.9666,0.972,0.9761,0.9805,0.9831,0.9846,0.985,0.9855,0.9847,0.9834,0.9841,0.981,0.9848,0.9848,0.9848,0.9848,0.9848,0.9329,0.9354,0.9395,0.9435,0.9465,0.9498,0.9525,0.9554,0.959,0.9637,0.9654,0.9697,0.9736,0.9797,0.9822,0.9855,0.9857,0.9865,0.9867,0.9869,0.9868,0.9829,0.9864,0.9864,0.9864,0.9864,0.9864,0,0.9354,0.9382,0.9418,0.9467,0.9498,0.951,0.955,0.9575,0.9612,0.9648,0.9682,0.973,0.977,0.9807,0.9849,0.9868,0.9876,0.9878,0.9877,0.9882,0.9864,0.9855,0.9871,0.9871,0.9871,0.9871,0.9871,0.9871,0.9371,0.9413,0.9433,0.949,0.9518,0.956,0.9581,0.9611,0.964,0.9692,0.9725,0.975,0.9786,0.983,0.9867,0.9877,0.9891,0.9891,0.9902,0.9885,0.9884,0.9883,0.9874,0.9894,0.9894,0.9918,0.9918,0.9918]},{"header":{"parameterUnit":"m.s-1","parameterCategory":1,"la1":30.2991,"la2":30.254,"lo1":-89.0895,"lo2":-89.0444,"dy":0.0017,"dx":0.0017,"nx":28,"ny":28,"refTime":"2024-07-31T09:00:00:Z","depth":0,"parameterNumber":3,"parameterNumberName":"V-component_of_WINDS"},"data":[0,0,0,0,0,0,0,0,0,0,0,0,0,0,0,0,0,0,0,0,0,0,0,0,0,0,0,0,0,0,0,0,0,0,0,0,0,0,0,0,0,0,0,0,0,0,0,0,0,0,0,0,0,0,0,0,0,0,4.3264,4.3264,0,4.3238,4.3238,4.3238,4.3183,4.3182,4.318,4.3179,4.3154,4.3154,4.3155,0,0,0,0,0,0,0,0,0,0,0,0,0,4.3269,4.3269,4.3265,4.3264,4.3264,4.3238,4.3238,4.3238,4.3183,4.3182,4.318,4.3179,4.3154,4.3154,4.3155,0,0,0,0,0,0,0,0,0,0,0,0,0,4.3257,4.3269,4.3265,4.3233,4.323,4.3238,4.3238,4.3238,4.3183,4.3181,4.318,4.3178,4.3154,4.3154,4.3155,4.3192,0,0,4.3157,4.3157,0,0,0,0,0,0,0,0,4.3258,4.3257,4.3238,4.3236,4.3232,4.3212,4.323,4.3222,4.3184,4.3201,4.3179,4.3177,4.3175,4.3174,4.3172,4.3191,4.3189,4.3157,4.3157,4.3157,4.3157,0,0,0,0,0,0,0,4.3259,4.3258,4.3254,4.3238,4.3234,4.3221,4.3218,4.3228,4.3198,4.3199,4.3195,4.3193,4.3173,4.3172,4.3171,4.3189,4.3157,4.3157,4.3157,4.3158,4.3236,4.3238,0,0,0,0,0,0,4.3264,4.3259,4.3255,4.3253,4.3241,4.3223,4.3219,4.322,4.3197,4.3192,4.3194,4.3191,4.3172,4.3171,4.317,4.3211,4.3157,4.3158,4.3158,4.3234,4.3236,4.3238,0,0,0,0,0,0,4.3264,4.3264,4.3256,4.3255,4.3253,4.3224,4.3226,4.3221,4.322,4.3194,4.3188,4.3199,4.3171,4.317,4.3187,4.321,4.3158,4.3158,4.3232,4.3235,4.3237,4.3295,0,0,0,0,0,0,4.3265,4.3264,4.3278,4.3256,4.3253,4.3273,4.3228,4.3221,4.322,4.3215,4.3196,4.3192,4.3169,4.3186,4.3187,4.321,4.3159,4.323,4.3233,4.3237,4.3291,4.3299,4.3306,0,0,0,0,0,4.3265,4.3295,4.3279,4.3278,4.3269,4.3274,4.3273,4.3245,4.3223,4.3236,4.3219,4.3192,4.3207,4.3188,4.3189,4.3212,4.3228,4.3233,4.3236,4.3287,4.3297,4.3306,0,0,0,0,0,0,4.3321,4.3292,4.3273,4.3297,4.3288,4.3265,4.3281,4.3257,4.3255,4.325,4.3217,4.3214,4.3235,4.3225,4.3205,4.3247,4.3214,4.3218,4.3252,4.3261,4.3269,4.3271,4.3159,0,0,0,0,0,4.3336,4.3342,4.3316,4.334,4.3337,4.331,4.3311,4.3291,4.328,4.3277,4.3261,4.3253,4.3255,4.3258,4.3259,4.3289,4.3284,4.3305,4.3313,4.332,4.3324,4.3339,4.3348,4.3251,4.3251,4.3251,0,0,4.3368,4.3352,4.3358,4.3351,4.3342,4.3349,4.3307,4.3316,4.3321,4.3278,4.3293,4.3282,4.327,4.3294,4.3304,4.3286,4.3349,4.3325,4.333,4.333,4.3344,4.3353,4.3361,4.3254,4.3254,4.3253,0,0,4.3428,4.3418,4.3436,4.3428,4.3414,4.3396,4.3401,4.3381,4.3371,4.3386,4.3353,4.3359,4.3365,4.3358,4.3355,4.3414,4.3389,4.3415,4.3456,4.3471,4.3478,4.3485,4.3505,4.3513,4.342,4.342,4.342,0,4.3469,4.3478,4.3449,4.346,4.3458,4.3419,4.3437,4.3431,4.3419,4.3419,4.34,4.3406,4.3395,4.3417,4.3431,4.343,4.3435,4.3417,4.348,4.3486,4.3491,4.3511,4.3519,4.3423,4.3423,4.3422,4.3422,0,4.3529,4.3536,4.3552,4.3541,4.3541,4.3556,4.3529,4.3533,4.3513,4.3497,4.3513,4.3499,4.3496,4.35,4.3481,4.3519,4.3509,4.3485,4.3451,4.3504,4.3522,4.3529,4.3428,4.3426,4.3425,4.3425,0,0,4.3624,4.3596,4.3603,4.3597,4.358,4.3585,4.3598,4.3595,4.3599,4.3593,4.3603,4.3609,4.3587,4.3584,4.3564,4.3577,4.3624,4.3552,4.3551,4.3565,4.3665,4.3682,4.3692,4.3608,4.3609,4.361,4.3666,0,4.368,4.3701,4.3675,4.3701,4.3707,4.3671,4.3683,4.3674,4.366,4.3663,4.3647,4.3652,4.3623,4.3621,4.3632,4.3616,4.3644,4.3612,4.3618,4.3618,4.3621,4.3701,4.3719,4.3772,4.3673,4.3674,4.3675,0,4.3748,4.3744,4.3771,4.3752,4.3754,4.3765,4.376,4.3764,4.3754,4.3742,4.3739,4.3715,4.3727,4.3695,4.3712,4.3691,4.3692,4.3685,4.3686,4.3685,4.3649,4.3701,4.3788,4.3796,4.3685,4.3684,4.3684,0,4.3814,4.3816,4.3832,4.3828,4.3807,4.3815,4.3807,4.3795,4.3795,4.3791,4.3791,4.3789,4.3788,4.3787,4.3763,4.3742,4.3783,4.3749,4.3774,4.3775,4.3784,4.3783,4.3871,4.3786,4.3786,4.3785,4.3785,0,4.3879,4.3897,4.3861,4.3871,4.389,4.3861,4.3881,4.3869,4.3858,4.3866,4.3834,4.3842,4.381,4.3815,4.3797,4.3813,4.3813,4.3804,4.3799,4.3807,4.3808,4.3806,4.3802,4.3788,4.3787,4.3787,4.3786,0,4.3955,4.3932,4.3947,4.3926,4.3921,4.3936,4.3917,4.3926,4.391,4.392,4.3921,4.3896,4.3899,4.3876,4.3875,4.3863,4.3888,4.3877,4.3892,4.3888,4.3914,4.3912,4.4004,4.4014,4.3923,4.3924,4.3924,0,4.3998,4.4011,4.3991,4.3993,4.3986,4.3991,4.399,4.3962,4.3963,4.3952,4.3962,4.3963,4.3963,4.397,4.3952,4.3952,4.394,4.3973,4.394,4.3947,4.394,4.3939,4.394,4.3979,4.398,4.3981,4.3982,0,4.4076,4.4064,4.4065,4.4062,4.4062,4.4058,4.4053,4.4057,4.4026,4.4029,4.4032,4.4032,4.4031,4.4032,4.4028,4.402,4.3996,4.3993,4.3998,4.4006,4.4013,4.4009,4.3909,4.399,4.3989,4.3989,4.3988,4.3988,4.4136,4.4146,4.4133,4.4135,4.4128,4.4123,4.413,4.4115,4.4117,4.4114,4.4097,4.4104,4.4093,4.4085,4.4079,4.4084,4.4068,4.4077,4.4079,4.4081,4.4085,4.4013,4.4083,4.4083,4.4083,4.4082,4.4082,0,4.4213,4.4203,4.4205,4.4197,4.4199,4.4176,4.4169,4.4172,4.4177,4.4169,4.4169,4.4173,4.4174,4.4157,4.4156,4.4163,4.4152,4.4164,4.4162,4.4161,4.41,4.4094,4.4172,4.4172,4.4172,4.4172,4.4172,4.4172,4.4252,4.4267,4.4254,4.4265,4.4255,4.4261,4.4258,4.4254,4.4247,4.4253,4.4254,4.4242,4.423,4.4228,4.4229,4.4223,4.4224,4.424,4.4231,4.4174,4.4165,4.4157,4.4152,4.424,4.424,4.4291,4.4292,4.4292]}]]